[[{"header":{"parameterUnit":"m.s-1","parameterCategory":1,"la1":30.2991,"la2":30.254,"lo1":-89.0895,"lo2":-89.0444,"dy":0.0017,"dx":0.0017,"nx":28,"ny":28,"refTime":"2025-08-18T09:00:00:Z","depth":0,"parameterNumber":2,"parameterNumberName":"U-component_of_WINDS"},"data":[0,0,0,0,0,0,0,0,0,0,0,0,0,0,0,0,0,0,0,0,0,0,0,0,0,0,0,0,0,0,0,0,0,0,0,0,0,0,0,0,0,0,0,0,0,0,0,0,0,0,0,0,0,0,0,0,0,0,-0.272,-0.2719,0,-0.266,-0.266,-0.2659,-0.2628,-0.2628,-0.2628,-0.2628,-0.2566,-0.2564,-0.2562,0,0,0,0,0,0,0,0,0,0,0,0,0,-0.2805,-0.2804,-0.272,-0.2719,-0.2719,-0.2661,-0.266,-0.2659,-0.2628,-0.2628,-0.2628,-0.2628,-0.2566,-0.2564,-0.2562,0,0,0,0,0,0,0,0,0,0,0,0,0,-0.2759,-0.2803,-0.272,-0.2696,-0.2693,-0.2661,-0.266,-0.2659,-0.2628,-0.2628,-0.2628,-0.2628,-0.2567,-0.2564,-0.2562,-0.2548,0,0,-0.2555,-0.2554,0,0,0,0,0,0,0,0,-0.2762,-0.2756,-0.27,-0.2698,-0.2695,-0.2652,-0.2667,-0.2622,-0.2628,-0.2653,-0.2628,-0.2628,-0.2594,-0.259,-0.2578,-0.2545,-0.2543,-0.2554,-0.2553,-0.2552,-0.2551,0,0,0,0,0,0,0,-0.2765,-0.2758,-0.2696,-0.27,-0.2696,-0.2688,-0.2681,-0.2658,-0.2625,-0.2651,-0.2648,-0.2642,-0.2593,-0.2581,-0.2577,-0.2542,-0.2554,-0.2552,-0.2551,-0.255,-0.2493,-0.2493,0,0,0,0,0,0,-0.2772,-0.2761,-0.2698,-0.2695,-0.2729,-0.2686,-0.2679,-0.2665,-0.2625,-0.2618,-0.2642,-0.2641,-0.2585,-0.258,-0.2574,-0.2555,-0.2552,-0.255,-0.2548,-0.2493,-0.2493,-0.2493,0,0,0,0,0,0,-0.2774,-0.2767,-0.2701,-0.2727,-0.2718,-0.2685,-0.267,-0.2664,-0.2653,-0.2618,-0.2612,-0.2636,-0.2585,-0.2578,-0.2555,-0.2553,-0.2549,-0.2546,-0.2493,-0.2493,-0.2493,-0.2517,0,0,0,0,0,0,-0.2777,-0.2768,-0.2763,-0.2727,-0.2717,-0.2683,-0.267,-0.2663,-0.2649,-0.2646,-0.2611,-0.2605,-0.2584,-0.2559,-0.2552,-0.2549,-0.2544,-0.2493,-0.2493,-0.2493,-0.2516,-0.2517,-0.2519,0,0,0,0,0,-0.278,-0.2772,-0.2763,-0.2755,-0.271,-0.2683,-0.2677,-0.2653,-0.2649,-0.2643,-0.262,-0.2606,-0.2554,-0.2557,-0.2549,-0.2545,-0.2493,-0.2493,-0.2493,-0.2515,-0.2517,-0.2519,0,0,0,0,0,0,-0.2807,-0.2767,-0.2756,-0.2736,-0.2713,-0.2678,-0.267,-0.2656,-0.2633,-0.2632,-0.2603,-0.2596,-0.2575,-0.2558,-0.2562,-0.2529,-0.2522,-0.2521,-0.2541,-0.2543,-0.2544,-0.2549,-0.2542,0,0,0,0,0,-0.2811,-0.2793,-0.2758,-0.2744,-0.2733,-0.2703,-0.269,-0.2674,-0.2649,-0.2639,-0.2615,-0.2591,-0.2569,-0.2555,-0.2532,-0.2513,-0.2505,-0.2507,-0.2508,-0.2509,-0.2508,-0.2496,-0.2497,-0.2493,-0.2493,-0.2493,0,0,-0.2818,-0.2794,-0.2784,-0.2748,-0.2729,-0.271,-0.2695,-0.2676,-0.2662,-0.2636,-0.2613,-0.2594,-0.2565,-0.2544,-0.2533,-0.2529,-0.2507,-0.2509,-0.2511,-0.2509,-0.2496,-0.2497,-0.2497,-0.2493,-0.2493,-0.2493,0,0,-0.2822,-0.2802,-0.2788,-0.2768,-0.2739,-0.2719,-0.2716,-0.2682,-0.2669,-0.2645,-0.2625,-0.2607,-0.257,-0.255,-0.2535,-0.2531,-0.2517,-0.2524,-0.2531,-0.252,-0.252,-0.252,-0.2519,-0.2518,-0.2523,-0.2523,-0.2523,0,-0.2835,-0.2807,-0.2782,-0.2764,-0.2749,-0.2725,-0.271,-0.2692,-0.2656,-0.2646,-0.2641,-0.2594,-0.2572,-0.2546,-0.2545,-0.2534,-0.2528,-0.2528,-0.2522,-0.2522,-0.2522,-0.252,-0.2519,-0.2524,-0.2524,-0.2524,-0.2524,0,-0.2824,-0.2804,-0.2796,-0.2763,-0.2747,-0.273,-0.2702,-0.2689,-0.2674,-0.2654,-0.263,-0.2604,-0.2576,-0.2568,-0.2553,-0.2539,-0.2537,-0.2528,-0.252,-0.2524,-0.2521,-0.252,-0.2526,-0.2526,-0.2525,-0.2525,0,0,-0.2844,-0.2797,-0.2794,-0.2779,-0.2744,-0.2728,-0.271,-0.2683,-0.2671,-0.2647,-0.2631,-0.26,-0.2591,-0.2574,-0.2557,-0.2547,-0.2545,-0.2538,-0.2537,-0.254,-0.2527,-0.2534,-0.2534,-0.2535,-0.2535,-0.2534,-0.2529,0,-0.2843,-0.2811,-0.2788,-0.2764,-0.2745,-0.2721,-0.2706,-0.2682,-0.2663,-0.2644,-0.2623,-0.2602,-0.2591,-0.2581,-0.257,-0.2547,-0.2541,-0.2547,-0.2519,-0.2519,-0.2527,-0.2533,-0.254,-0.2537,-0.2528,-0.2528,-0.2528,0,-0.2838,-0.2815,-0.279,-0.2756,-0.2748,-0.2734,-0.2707,-0.2689,-0.2661,-0.2648,-0.2629,-0.2611,-0.259,-0.2584,-0.2555,-0.256,-0.2547,-0.2534,-0.2533,-0.253,-0.2524,-0.2529,-0.2535,-0.2535,-0.2526,-0.2526,-0.2527,0,-0.2856,-0.2818,-0.2798,-0.2785,-0.2746,-0.2737,-0.272,-0.2692,-0.2677,-0.2653,-0.2643,-0.2617,-0.2602,-0.2582,-0.2557,-0.2555,-0.2531,-0.2523,-0.2519,-0.2519,-0.2515,-0.2515,-0.2519,-0.2506,-0.2506,-0.2506,-0.2507,0,-0.2857,-0.2842,-0.2805,-0.2793,-0.2775,-0.2748,-0.2731,-0.2712,-0.2688,-0.2671,-0.2648,-0.2633,-0.2601,-0.2581,-0.2561,-0.254,-0.2534,-0.2522,-0.2517,-0.2524,-0.2526,-0.2516,-0.2515,-0.2506,-0.2506,-0.2506,-0.2506,0,-0.2874,-0.2848,-0.2824,-0.2789,-0.278,-0.2768,-0.2737,-0.2724,-0.2704,-0.2682,-0.2676,-0.2644,-0.2619,-0.2592,-0.2559,-0.2546,-0.2525,-0.2518,-0.2535,-0.2532,-0.253,-0.253,-0.2527,-0.2525,-0.2514,-0.2514,-0.2514,0,-0.2877,-0.2865,-0.2828,-0.2815,-0.2799,-0.2778,-0.2763,-0.2735,-0.272,-0.2687,-0.2678,-0.2652,-0.2629,-0.2591,-0.2565,-0.2539,-0.2531,-0.2531,-0.2527,-0.2534,-0.2531,-0.2532,-0.253,-0.2533,-0.2533,-0.2533,-0.2533,0,-0.2885,-0.2872,-0.2851,-0.2825,-0.2807,-0.2785,-0.2763,-0.2753,-0.2721,-0.2705,-0.268,-0.2662,-0.2628,-0.2602,-0.2573,-0.2554,-0.2538,-0.2535,-0.2533,-0.254,-0.255,-0.2544,-0.2539,-0.2535,-0.2535,-0.2535,-0.2535,-0.2535,-0.2894,-0.2883,-0.2855,-0.2831,-0.2811,-0.279,-0.2776,-0.2754,-0.2732,-0.2703,-0.2687,-0.2662,-0.2634,-0.2593,-0.2575,-0.2555,-0.255,-0.2547,-0.2546,-0.2545,-0.2547,-0.2553,-0.2549,-0.2549,-0.2549,-0.2549,-0.2549,0,-0.2901,-0.2882,-0.2861,-0.283,-0.2811,-0.2798,-0.2772,-0.2757,-0.2735,-0.271,-0.2689,-0.266,-0.2634,-0.2605,-0.2578,-0.2567,-0.2559,-0.2561,-0.2561,-0.2557,-0.2553,-0.2558,-0.2568,-0.2568,-0.2568,-0.2568,-0.2568,-0.2568,-0.2903,-0.2882,-0.2866,-0.2835,-0.2815,-0.2791,-0.2777,-0.2757,-0.2737,-0.2705,-0.2684,-0.2666,-0.2639,-0.261,-0.2585,-0.2577,-0.2568,-0.2572,-0.2563,-0.2559,-0.2558,-0.2556,-0.2561,-0.2571,-0.2571,-0.2568,-0.2568,-0.2568]},{"header":{"parameterUnit":"m.s-1","parameterCategory":1,"la1":30.2991,"la2":30.254,"lo1":-89.0895,"lo2":-89.0444,"dy":0.0017,"dx":0.0017,"nx":28,"ny":28,"refTime":"2025-08-18T09:00:00:Z","depth":0,"parameterNumber":3,"parameterNumberName":"V-component_of_WINDS"},"data":[0,0,0,0,0,0,0,0,0,0,0,0,0,0,0,0,0,0,0,0,0,0,0,0,0,0,0,0,0,0,0,0,0,0,0,0,0,0,0,0,0,0,0,0,0,0,0,0,0,0,0,0,0,0,0,0,0,0,0.044,0.044,0,0.0474,0.0475,0.0475,0.051,0.051,0.0511,0.0511,0.0547,0.0547,0.0548,0,0,0,0,0,0,0,0,0,0,0,0,0,0.0402,0.0403,0.044,0.044,0.0441,0.0474,0.0475,0.0475,0.051,0.051,0.0511,0.0511,0.0547,0.0547,0.0548,0,0,0,0,0,0,0,0,0,0,0,0,0,0.0426,0.0403,0.044,0.0462,0.0464,0.0474,0.0475,0.0475,0.051,0.051,0.0511,0.0512,0.0546,0.0547,0.0548,0.0539,0,0,0.055,0.0551,0,0,0,0,0,0,0,0,0.0424,0.0427,0.0458,0.046,0.0463,0.0488,0.0475,0.0497,0.0509,0.0492,0.0511,0.0512,0.0527,0.0529,0.0534,0.054,0.0542,0.055,0.0551,0.0551,0.0551,0,0,0,0,0,0,0,0.0423,0.0426,0.0453,0.0459,0.0461,0.047,0.0474,0.0479,0.0505,0.0494,0.0497,0.05,0.0528,0.0533,0.0535,0.0542,0.055,0.0551,0.0551,0.0552,0.054,0.0539,0,0,0,0,0,0,0.0418,0.0424,0.0452,0.0454,0.0445,0.047,0.0474,0.048,0.0505,0.051,0.05,0.0502,0.0532,0.0534,0.0537,0.0525,0.0551,0.0552,0.0552,0.0541,0.054,0.0539,0,0,0,0,0,0,0.0417,0.042,0.0451,0.044,0.0445,0.047,0.0475,0.048,0.0485,0.051,0.0514,0.05,0.0532,0.0536,0.0537,0.0527,0.0552,0.0553,0.0542,0.054,0.0539,0.0504,0,0,0,0,0,0,0.0416,0.042,0.0417,0.044,0.0445,0.0451,0.0475,0.048,0.0486,0.0489,0.0511,0.0515,0.0533,0.0536,0.0538,0.0529,0.0553,0.0543,0.0541,0.054,0.0506,0.0502,0.0498,0,0,0,0,0,0.0414,0.0406,0.0416,0.042,0.0442,0.0451,0.0454,0.0474,0.0485,0.0482,0.0498,0.0515,0.0528,0.0536,0.0539,0.0529,0.0543,0.0541,0.054,0.0508,0.0503,0.0498,0,0,0,0,0,0,0.0382,0.041,0.0421,0.0421,0.0433,0.0456,0.0453,0.0468,0.0478,0.048,0.0505,0.051,0.0508,0.0519,0.0527,0.052,0.0538,0.0537,0.0513,0.0508,0.0504,0.0501,0.0554,0,0,0,0,0,0.0375,0.0379,0.0403,0.04,0.0406,0.0428,0.0433,0.0447,0.0461,0.0467,0.0482,0.0495,0.0502,0.0506,0.0514,0.0508,0.0512,0.0503,0.0499,0.0496,0.0494,0.0489,0.0484,0.0533,0.0533,0.0533,0,0,0.036,0.0376,0.0377,0.0394,0.0405,0.0409,0.0433,0.0436,0.0438,0.0467,0.0469,0.0481,0.0497,0.0494,0.0494,0.0503,0.0481,0.0493,0.049,0.049,0.0487,0.0482,0.0478,0.0532,0.0532,0.0532,0,0,0.0334,0.0347,0.0345,0.0355,0.0372,0.0386,0.0385,0.0406,0.0415,0.0417,0.0438,0.0441,0.0454,0.0463,0.0469,0.0444,0.046,0.0447,0.0425,0.042,0.0416,0.0413,0.0402,0.0398,0.0445,0.0445,0.0445,0,0.0314,0.032,0.0342,0.0343,0.0349,0.0374,0.0371,0.038,0.0398,0.0402,0.0412,0.0426,0.0438,0.0437,0.043,0.0436,0.0434,0.0444,0.0415,0.0412,0.0409,0.0399,0.0395,0.0443,0.0443,0.0443,0.0444,0,0.0293,0.0297,0.0293,0.0308,0.0314,0.0313,0.0334,0.0337,0.035,0.0363,0.0364,0.038,0.039,0.0391,0.0405,0.0391,0.0396,0.041,0.0428,0.0402,0.0392,0.0389,0.044,0.0441,0.0441,0.0442,0,0,0.0248,0.0274,0.0272,0.0278,0.0297,0.0301,0.03,0.0309,0.031,0.0322,0.0321,0.0329,0.0342,0.0349,0.0364,0.036,0.0336,0.0375,0.0375,0.0365,0.0319,0.0306,0.0301,0.0347,0.0346,0.0346,0.0316,0,0.0224,0.0225,0.0243,0.0238,0.024,0.0264,0.0263,0.0274,0.0286,0.0289,0.0303,0.0307,0.0325,0.0329,0.0326,0.034,0.0327,0.0342,0.0345,0.0344,0.0338,0.0297,0.0284,0.0256,0.0313,0.0313,0.0312,0,0.0197,0.0205,0.0199,0.0216,0.0217,0.0216,0.0225,0.0229,0.0241,0.025,0.0256,0.0273,0.0272,0.029,0.0289,0.0299,0.0301,0.0307,0.0307,0.0306,0.0325,0.0293,0.0247,0.0242,0.0307,0.0307,0.0308,0,0.0162,0.0172,0.0169,0.0174,0.0194,0.0192,0.02,0.0213,0.0216,0.0224,0.0226,0.0234,0.0238,0.0243,0.0261,0.0273,0.0256,0.0276,0.0262,0.0261,0.0257,0.0256,0.0208,0.0261,0.0261,0.0261,0.0261,0,0.0132,0.0128,0.0153,0.0151,0.0146,0.0167,0.0161,0.0171,0.0182,0.0182,0.0203,0.0202,0.0227,0.0228,0.0242,0.0237,0.024,0.0246,0.0249,0.0242,0.0241,0.0243,0.0244,0.026,0.0261,0.0261,0.0261,0,0.0093,0.011,0.0108,0.0126,0.013,0.0125,0.014,0.0139,0.0151,0.015,0.0152,0.0171,0.0174,0.0192,0.02,0.0209,0.0198,0.0207,0.0194,0.0196,0.0179,0.018,0.0129,0.0122,0.0182,0.0181,0.0181,0,0.0072,0.0068,0.0085,0.0086,0.0093,0.0094,0.0097,0.0118,0.012,0.0132,0.0128,0.0133,0.0137,0.014,0.0155,0.016,0.0167,0.0149,0.0168,0.0161,0.0164,0.0163,0.0161,0.0145,0.0144,0.0143,0.0143,0,0.0032,0.004,0.0043,0.0049,0.0051,0.0057,0.0064,0.0064,0.0086,0.0087,0.0089,0.0093,0.0099,0.0102,0.0109,0.0117,0.0133,0.0137,0.0133,0.0125,0.0117,0.0119,0.018,0.0137,0.0138,0.0138,0.0139,0.0139,-0.0,-0.0004,0.0007,0.0009,0.0016,0.0021,0.002,0.0031,0.0033,0.0039,0.0051,0.0051,0.0062,0.0073,0.0079,0.0079,0.0088,0.0084,0.0082,0.008,0.0076,0.0118,0.008,0.0081,0.0081,0.0081,0.0081,0,-0.0041,-0.0034,-0.0032,-0.0024,-0.0023,-0.0009,-0.0001,-0.0001,-0.0002,0.0007,0.001,0.0011,0.0014,0.0028,0.0032,0.0028,0.0035,0.0029,0.0028,0.0029,0.0068,0.007,0.0023,0.0023,0.0023,0.0023,0.0023,0.0023,-0.0062,-0.0068,-0.006,-0.0063,-0.0055,-0.0056,-0.0053,-0.0049,-0.0043,-0.0042,-0.0041,-0.0031,-0.0022,-0.0017,-0.0015,-0.0011,-0.0012,-0.0021,-0.0015,0.0021,0.0027,0.0032,0.0033,-0.0021,-0.0021,-0.0055,-0.0055,-0.0056]}]]